sat.trackr.live / text

‹ back to catalog

STARLINK-35311

NORAD 66032 · 2025-232AD

PAYLOAD ACTIVE UNKNOWN

§ Identity

Operator
Country
US
Launch date
2025-10-16
Launch site
AFETR
Launch vehicle
Mass (kg)
RCS (m²)

Purposes: comms

External: N2YO · Heavens-Above · Gunter

§ Orbital elements

Epoch: 2026-05-25T03:40:48.991584Z

Period
93.85 min
Inclination
53.1606°
Eccentricity
0.0001023
Mean motion
15.34415151 rev/d
Perigee alt
462.0 km
Apogee alt
463.4 km
Semi-major
6,840.8 km
B*
6.5760e-4
RAAN
108.6423°
Arg perigee
131.9415°
Mean anomaly
228.1675°
Rev number
3,514

§ Raw data

STARLINK-353111 66032U 25232AD  26145.15334481  .00021917  00000+0  65760-3 0  99942 66032  53.1606 108.6423 0001023 131.9415 228.1675 15.34415151 35148

JSON: /api/v1/satellites/66032 · /tle

For live sub-satellite position, see the globe view (requires WebGL).

§ Visibility from observer

Set your observer location to see the next 7 days of passes ≥ 10°. The values pass through the URL so the page stays shareable.

No JS? Fill the form by hand. The geolocation button needs JavaScript.